2023/01/29 00:00:00,63.1,-3.4
2023/01/29 00:10:00,63.0,-3.6
2023/01/29 00:20:00,62.8,-3.6
2023/01/29 00:30:00,62.7,-3.8
2023/01/29 00:40:00,62.5,-3.9
2023/01/29 00:50:00,62.3,-3.9
2023/01/29 01:00:00,62.2,-4.1
2023/01/29 01:10:00,62.1,-4.2
2023/01/29 01:20:00,61.9,-3.9
2023/01/29 01:30:00,61.8,-3.6
2023/01/29 01:40:00,62.3,-3.9
2023/01/29 01:50:00,62.3,-4.3
2023/01/29 02:00:00,62.0,-4.0
2023/01/29 02:10:00,61.6,-3.8
2023/01/29 02:20:00,61.6,-3.9
2023/01/29 02:30:00,61.7,-3.7
2023/01/29 02:40:00,61.6,-3.7
2023/01/29 02:50:00,61.6,-3.7
2023/01/29 03:00:00,61.4,-3.7
2023/01/29 03:10:00,61.2,-3.7
2023/01/29 03:20:00,61.1,-3.9
2023/01/29 03:30:00,60.9,-3.5
2023/01/29 03:40:00,60.7,-3.6
2023/01/29 03:50:00,60.9,-3.9
2023/01/29 04:00:00,60.6,-3.5
2023/01/29 04:10:00,60.4,-3.3
2023/01/29 04:20:00,60.2,-3.6
2023/01/29 04:30:00,60.1,-4.0
2023/01/29 04:40:00,59.9,-3.9
2023/01/29 04:50:00,59.8,-3.8
2023/01/29 05:00:00,59.6,-3.5
2023/01/29 05:10:00,59.5,-3.8
2023/01/29 05:20:00,59.3,-4.0
2023/01/29 05:30:00,59.3,-4.6
2023/01/29 05:40:00,59.4,-4.8
2023/01/29 05:50:00,59.3,-4.9
2023/01/29 06:00:00,58.9,-4.6
2023/01/29 06:10:00,59.0,-4.8
2023/01/29 06:20:00,59.1,-4.9
2023/01/29 06:30:00,59.1,-5.2
2023/01/29 06:40:00,59.1,-5.2
2023/01/29 06:50:00,59.1,-5.5
2023/01/29 07:00:00,58.8,-5.5
2023/01/29 07:10:00,58.7,-5.6
2023/01/29 07:20:00,58.5,-5.5
2023/01/29 07:30:00,58.5,-4.9
2023/01/29 07:40:00,58.4,-3.7
2023/01/29 07:50:00,58.2,-3.8
2023/01/29 08:00:00,58.1,-3.2
2023/01/29 08:10:00,58.0,-3.2
2023/01/29 08:20:00,58.0,-3.0
2023/01/29 08:30:00,58.0,-1.9
2023/01/29 08:40:00,57.9,-3.1
2023/01/29 08:50:00,57.7,-2.0
2023/01/29 09:00:00,57.5,-0.8
2023/01/29 09:10:00,57.0, 1.7
2023/01/29 09:20:00,56.6, 1.2
2023/01/29 09:30:00,56.6, 0.6
2023/01/29 09:40:00,56.6,-0.6
2023/01/29 09:50:00,56.6, 0.7
2023/01/29 10:00:00,56.5, 1.4
2023/01/29 10:10:00,56.5, 1.1
2023/01/29 10:20:00,56.2, 4.8
2023/01/29 10:30:00,55.5,10.2
2023/01/29 10:40:00,55.2, 6.5
2023/01/29 10:50:00,55.1, 4.1
2023/01/29 11:00:00,55.1, 2.4
2023/01/29 11:10:00,55.0, 2.7
2023/01/29 11:20:00,55.0, 3.0
2023/01/29 11:30:00,55.1, 3.2
2023/01/29 11:40:00,55.0, 3.1
2023/01/29 11:50:00,54.6, 6.0
2023/01/29 12:00:00,54.2,10.4
2023/01/29 12:10:00,54.0, 5.9
2023/01/29 12:20:00,53.7, 5.0
2023/01/29 12:30:00,53.6, 4.3
2023/01/29 12:40:00,53.3, 5.2
2023/01/29 12:50:00,52.9, 6.2
2023/01/29 13:00:00,52.6, 5.7
2023/01/29 13:10:00,52.4, 5.3
2023/01/29 13:20:00,51.8, 7.8
2023/01/29 13:30:00,51.9, 6.3
2023/01/29 13:40:00,51.5, 6.7
2023/01/29 13:50:00,51.0, 9.0
2023/01/29 14:00:00,51.2, 6.9
2023/01/29 14:10:00,50.5,11.1
2023/01/29 14:20:00,50.3, 6.9
2023/01/29 14:30:00,50.1, 6.4
2023/01/29 14:40:00,50.0, 5.7
2023/01/29 14:50:00,50.2, 4.7
2023/01/29 15:00:00,50.3, 3.8
2023/01/29 15:10:00,50.1, 4.2
2023/01/29 15:20:00,50.0, 3.4
2023/01/29 15:30:00,50.0, 2.6
2023/01/29 15:40:00,49.9, 2.4
2023/01/29 15:50:00,49.8, 2.0
2023/01/29 16:00:00,49.8, 1.1
2023/01/29 16:10:00,49.6, 0.8
2023/01/29 16:20:00,49.5, 0.7
2023/01/29 16:30:00,49.4,-0.5
2023/01/29 16:40:00,49.3,-0.2
2023/01/29 16:50:00,49.2,-0.8
2023/01/29 17:00:00,49.1,-1.0
2023/01/29 17:10:00,49.2,-1.0
2023/01/29 17:20:00,49.2,-1.3
2023/01/29 17:30:00,49.2,-1.8
2023/01/29 17:40:00,49.2,-2.3
2023/01/29 17:50:00,49.0,-2.1
2023/01/29 18:00:00,48.9,-2.6
2023/01/29 18:10:00,48.9,-2.3
2023/01/29 18:20:00,49.0,-3.0
2023/01/29 18:30:00,48.9,-3.1
2023/01/29 18:40:00,48.8,-3.2
2023/01/29 18:50:00,48.8,-3.0
2023/01/29 19:00:00,48.8,-3.5
2023/01/29 19:10:00,48.7,-3.7
2023/01/29 19:20:00,48.7,-3.6
2023/01/29 19:30:00,48.7,-3.7
2023/01/29 19:40:00,48.7,-3.7
2023/01/29 19:50:00,48.6,-3.9
2023/01/29 20:00:00,48.6,-4.0
2023/01/29 20:10:00,48.4,-3.8
2023/01/29 20:20:00,48.3,-3.6
2023/01/29 20:30:00,48.2,-3.7
2023/01/29 20:40:00,48.3,-4.1
2023/01/29 20:50:00,48.3,-4.1
2023/01/29 21:00:00,48.2,-4.0
2023/01/29 21:10:00,48.2,-4.5
2023/01/29 21:20:00,48.1,-4.3
2023/01/29 21:30:00,48.2,-4.3
2023/01/29 21:40:00,48.1,-4.2
2023/01/29 21:50:00,48.0,-4.7
2023/01/29 22:00:00,47.8,-4.4
2023/01/29 22:10:00,47.7,-4.4
2023/01/29 22:20:00,47.5,-4.7
2023/01/29 22:30:00,47.4,-4.3
2023/01/29 22:40:00,47.4,-4.3
2023/01/29 22:50:00,47.4,-4.2
2023/01/29 23:00:00,47.3,-4.0
2023/01/29 23:10:00,47.3,-4.1
2023/01/29 23:20:00,47.4,-4.0
2023/01/29 23:30:00,47.4,-4.1
2023/01/29 23:40:00,47.4,-3.2
2023/01/29 23:50:00,47.5,-4.1
